Location: St Paul
(33.9360°N, 83.4200°W)
Time: 01:44:26
(UTC-05:00)

ALOS - Pass Details

Date: 06 October 2017
Orbit: 683 x 687 km, 97.8° (Epoch: 11 December)

Event Time Altitude Azimuth Distance (km) Brightness Sun altitude
Rises 20:16:10 0° 171° (S) 3,032 5.5 -14.4°
Reaches altitude 10° 20:18:24 10° 172° (S) 2,121 4.7 -14.8°
Maximum altitude 20:23:03 76° 258° (WSW) 709 2.4 -15.8°
Drops below altitude 10° 20:27:43 10° 345° (NNW) 2,137 5.1 -16.8°
Sets 20:29:59 0° 347° (NNW) 3,057 5.9 -17.2°
